Location: Newark
(32.2500°S, 148.6000°E)
Time: 03:47:28
(UTC+00:00)

Hubble Space Telescope - Visible Passes

Search period start: 18 October 2019 00:00
Search period end: 28 October 2019 00:00
Orbit: 536 x 540 km, 28.5° (Epoch: 17 October)

Date Brightness Start Highest point End Pass type
(mag) Time Alt. Az. Time Alt. Az. Time Alt. Az.
18 Oct 3.3 17:31:55 11° NNE 17:31:55 11° NNE 17:32:11 10° NNE visible
22 Oct 2.7 09:59:49 10° NNW 10:01:24 17° NNW 10:01:24 17° NNW visible
23 Oct 2.0 09:48:56 10° NW 09:52:00 26° N 09:52:00 26° N visible
24 Oct 1.7 09:38:07 10° NW 09:41:49 31° NNE 09:42:30 29° NE visible
25 Oct 1.5 09:27:22 10° NW 09:31:11 35° NNE 09:32:52 25° ENE visible
25 Oct 3.7 11:08:05 10° WNW 11:08:13 11° WNW 11:08:13 11° WNW visible
26 Oct 1.4 09:16:39 10° WNW 09:20:34 40° N 09:23:07 19° ENE visible
26 Oct 3.2 10:57:29 10° WNW 10:58:29 16° WNW 10:58:29 16° WNW visible
27 Oct 1.3 09:05:59 10° WNW 09:09:58 44° N 09:13:18 14° ENE visible
27 Oct 2.8 10:46:55 10° W 10:48:39 23° WNW 10:48:39 23° WNW visible
